Tracking 35274 objects as of 11-Sep-2026
HD Live streaming from Space Station
objects crossing your sky now

GEOS 2

Track GEOS 2 now!
GEOS 2 is classified as:


NORAD ID: 10981
Int'l Code: 1978-071A
Launch date: July 14, 1978
Source: European Space Agency (ESA)
Launch site: AIR FORCE EASTERN TEST RANGE (AFETR)
Your satellite tracking list
Your tracking list is empty




NASA's NSSDC Master Catalog

Two Line Element Set (TLE):
1 10981U 78071A   26254.29036966 -.00000086  00000-0  00000-0 0  9997
2 10981   5.3623 285.7465 0004920 353.5727  86.2715  0.99375226174851
Source of the keplerian elements: AFSPC